[[{"header":{"parameterUnit":"m.s-1","parameterCategory":1,"la1":30.2991,"la2":30.254,"lo1":-89.0895,"lo2":-89.0444,"dy":0.0017,"dx":0.0017,"nx":28,"ny":28,"refTime":"2026-02-09T09:00:00:Z","depth":0,"parameterNumber":2,"parameterNumberName":"U-component_of_WINDS"},"data":[0,0,0,0,0,0,0,0,0,0,0,0,0,0,0,0,0,0,0,0,0,0,0,0,0,0,0,0,0,0,0,0,0,0,0,0,0,0,0,0,0,0,0,0,0,0,0,0,0,0,0,0,0,0,0,0,0,0,-0.4735,-0.4736,0,-0.4756,-0.4756,-0.4756,-0.4764,-0.4764,-0.4764,-0.4764,-0.4785,-0.4785,-0.4786,0,0,0,0,0,0,0,0,0,0,0,0,0,-0.4704,-0.4705,-0.4735,-0.4736,-0.4736,-0.4756,-0.4756,-0.4756,-0.4764,-0.4764,-0.4764,-0.4764,-0.4784,-0.4785,-0.4786,0,0,0,0,0,0,0,0,0,0,0,0,0,-0.472,-0.4705,-0.4735,-0.4742,-0.4743,-0.4756,-0.4756,-0.4756,-0.4764,-0.4764,-0.4764,-0.4764,-0.4784,-0.4785,-0.4786,-0.4793,0,0,-0.4789,-0.4789,0,0,0,0,0,0,0,0,-0.472,-0.4722,-0.4741,-0.4742,-0.4743,-0.4757,-0.4753,-0.4769,-0.4764,-0.4756,-0.4764,-0.4764,-0.4776,-0.4777,-0.4781,-0.4794,-0.4795,-0.4789,-0.4789,-0.479,-0.479,0,0,0,0,0,0,0,-0.4718,-0.4721,-0.4744,-0.4741,-0.4742,-0.4745,-0.4747,-0.4756,-0.4766,-0.4757,-0.4757,-0.476,-0.4776,-0.478,-0.4782,-0.4795,-0.4789,-0.479,-0.479,-0.4791,-0.4817,-0.4817,0,0,0,0,0,0,-0.4716,-0.472,-0.4743,-0.4744,-0.4731,-0.4745,-0.4748,-0.4753,-0.4766,-0.4768,-0.476,-0.476,-0.4779,-0.4781,-0.4783,-0.4792,-0.479,-0.4791,-0.4791,-0.4816,-0.4817,-0.4817,0,0,0,0,0,0,-0.4715,-0.4718,-0.4742,-0.4732,-0.4735,-0.4746,-0.4751,-0.4753,-0.4757,-0.4768,-0.477,-0.4762,-0.4779,-0.4781,-0.4791,-0.4793,-0.4791,-0.4792,-0.4816,-0.4817,-0.4817,-0.4812,0,0,0,0,0,0,-0.4714,-0.4718,-0.472,-0.4732,-0.4736,-0.475,-0.4752,-0.4754,-0.4759,-0.4759,-0.4771,-0.4773,-0.4779,-0.4789,-0.4792,-0.4794,-0.4793,-0.4816,-0.4816,-0.4817,-0.4812,-0.4812,-0.4812,0,0,0,0,0,-0.4713,-0.4718,-0.472,-0.4723,-0.4739,-0.475,-0.4752,-0.4759,-0.4759,-0.4762,-0.4769,-0.4772,-0.4793,-0.479,-0.4793,-0.4796,-0.4816,-0.4816,-0.4817,-0.4812,-0.4812,-0.4812,0,0,0,0,0,0,-0.4706,-0.4719,-0.4722,-0.4731,-0.4739,-0.4751,-0.4755,-0.4759,-0.4767,-0.4767,-0.4775,-0.4778,-0.4787,-0.4792,-0.4789,-0.4804,-0.4805,-0.4806,-0.48,-0.48,-0.48,-0.4798,-0.4793,0,0,0,0,0,-0.4705,-0.4712,-0.4724,-0.4731,-0.4735,-0.4744,-0.4749,-0.4754,-0.4762,-0.4766,-0.4774,-0.4782,-0.4791,-0.4796,-0.4804,-0.4813,-0.4816,-0.4817,-0.4817,-0.4817,-0.4817,-0.4823,-0.4823,-0.4818,-0.4818,-0.4818,0,0,-0.4704,-0.4712,-0.4716,-0.4729,-0.4736,-0.4744,-0.4747,-0.4754,-0.476,-0.4767,-0.4776,-0.4783,-0.4793,-0.4802,-0.4807,-0.4807,-0.4819,-0.4817,-0.4817,-0.4817,-0.4823,-0.4824,-0.4824,-0.4818,-0.4818,-0.4818,0,0,-0.4705,-0.4712,-0.4718,-0.4726,-0.4736,-0.4743,-0.4744,-0.4756,-0.476,-0.477,-0.4776,-0.4783,-0.4797,-0.4804,-0.481,-0.4816,-0.4819,-0.4818,-0.4818,-0.4824,-0.4824,-0.4825,-0.4827,-0.4827,-0.4819,-0.4819,-0.4819,0,-0.4702,-0.4713,-0.4721,-0.4729,-0.4735,-0.4742,-0.4749,-0.4755,-0.4768,-0.4772,-0.4773,-0.4791,-0.4798,-0.481,-0.4811,-0.4816,-0.4818,-0.4816,-0.4823,-0.4824,-0.4824,-0.4827,-0.4827,-0.4819,-0.4819,-0.4819,-0.4819,0,-0.4709,-0.4717,-0.4721,-0.4734,-0.474,-0.4747,-0.4757,-0.4762,-0.4767,-0.4774,-0.4784,-0.4793,-0.4804,-0.4807,-0.4812,-0.482,-0.482,-0.4822,-0.4822,-0.4825,-0.4827,-0.4828,-0.4818,-0.4818,-0.4818,-0.4818,0,0,-0.4705,-0.4723,-0.4724,-0.473,-0.4743,-0.4749,-0.4758,-0.4768,-0.4773,-0.4782,-0.4789,-0.4802,-0.4804,-0.481,-0.4816,-0.4821,-0.4825,-0.4822,-0.4823,-0.4822,-0.4835,-0.4833,-0.4834,-0.4828,-0.4828,-0.4828,-0.4834,0,-0.4708,-0.4722,-0.473,-0.4741,-0.4749,-0.4757,-0.4764,-0.4773,-0.4779,-0.4787,-0.4795,-0.4804,-0.4806,-0.481,-0.4815,-0.4823,-0.4828,-0.4823,-0.4835,-0.4835,-0.4831,-0.4835,-0.4833,-0.4838,-0.4835,-0.4835,-0.4836,0,-0.4713,-0.4722,-0.4734,-0.4747,-0.475,-0.4757,-0.4767,-0.4775,-0.4786,-0.479,-0.4798,-0.4804,-0.4813,-0.4814,-0.4827,-0.4823,-0.4829,-0.4834,-0.4834,-0.4835,-0.4835,-0.4836,-0.484,-0.4841,-0.4837,-0.4837,-0.4837,0,-0.4709,-0.4724,-0.4733,-0.4738,-0.4754,-0.4758,-0.4765,-0.4775,-0.4781,-0.4791,-0.4795,-0.4806,-0.4812,-0.482,-0.4829,-0.4829,-0.4842,-0.4843,-0.4846,-0.4846,-0.4848,-0.4847,-0.4852,-0.4852,-0.4852,-0.4852,-0.4852,0,-0.4711,-0.4718,-0.4732,-0.4737,-0.4746,-0.4756,-0.4764,-0.4771,-0.4781,-0.4788,-0.4796,-0.4803,-0.4814,-0.4823,-0.483,-0.484,-0.4842,-0.4847,-0.4848,-0.4846,-0.4845,-0.4849,-0.4849,-0.4852,-0.4852,-0.4852,-0.4852,0,-0.4707,-0.4717,-0.4727,-0.4741,-0.4745,-0.4751,-0.4763,-0.4769,-0.4777,-0.4786,-0.4789,-0.4801,-0.4812,-0.4822,-0.4836,-0.4841,-0.4851,-0.4853,-0.4847,-0.4848,-0.4851,-0.485,-0.4858,-0.4859,-0.4858,-0.4858,-0.4858,0,-0.4708,-0.4713,-0.4728,-0.4734,-0.474,-0.4749,-0.4756,-0.4766,-0.4773,-0.4786,-0.4791,-0.4802,-0.4811,-0.4828,-0.4838,-0.4849,-0.4852,-0.4854,-0.4854,-0.4851,-0.4852,-0.4851,-0.4852,-0.4854,-0.4854,-0.4853,-0.4853,0,-0.4707,-0.4712,-0.4721,-0.4733,-0.474,-0.4749,-0.4759,-0.4763,-0.4776,-0.4783,-0.4794,-0.4801,-0.4816,-0.4827,-0.484,-0.4847,-0.4852,-0.4854,-0.4855,-0.4852,-0.4848,-0.485,-0.4846,-0.4853,-0.4853,-0.4853,-0.4853,-0.4853,-0.4706,-0.4711,-0.4723,-0.4733,-0.4742,-0.4751,-0.4757,-0.4766,-0.4775,-0.4788,-0.4794,-0.4805,-0.4817,-0.4834,-0.4842,-0.4851,-0.4852,-0.4854,-0.4855,-0.4855,-0.4854,-0.4847,-0.4854,-0.4854,-0.4854,-0.4854,-0.4854,0,-0.4706,-0.4714,-0.4723,-0.4737,-0.4745,-0.475,-0.4761,-0.4767,-0.4777,-0.4788,-0.4797,-0.4811,-0.4822,-0.4833,-0.4846,-0.4851,-0.4854,-0.4854,-0.4853,-0.4855,-0.4853,-0.485,-0.4851,-0.4851,-0.4851,-0.4851,-0.4851,-0.4851,-0.4707,-0.4717,-0.4723,-0.4738,-0.4746,-0.4757,-0.4763,-0.4772,-0.478,-0.4794,-0.4804,-0.4812,-0.4823,-0.4836,-0.4847,-0.485,-0.4854,-0.4853,-0.4857,-0.4855,-0.4855,-0.4855,-0.4853,-0.4854,-0.4854,-0.4859,-0.4859,-0.4859]},{"header":{"parameterUnit":"m.s-1","parameterCategory":1,"la1":30.2991,"la2":30.254,"lo1":-89.0895,"lo2":-89.0444,"dy":0.0017,"dx":0.0017,"nx":28,"ny":28,"refTime":"2026-02-09T09:00:00:Z","depth":0,"parameterNumber":3,"parameterNumberName":"V-component_of_WINDS"},"data":[0,0,0,0,0,0,0,0,0,0,0,0,0,0,0,0,0,0,0,0,0,0,0,0,0,0,0,0,0,0,0,0,0,0,0,0,0,0,0,0,0,0,0,0,0,0,0,0,0,0,0,0,0,0,0,0,0,0,1.7913,1.7913,0,1.7903,1.7903,1.7903,1.7898,1.7898,1.7898,1.7898,1.7886,1.7886,1.7886,0,0,0,0,0,0,0,0,0,0,0,0,0,1.7925,1.7925,1.7913,1.7913,1.7913,1.7903,1.7903,1.7903,1.7898,1.7898,1.7898,1.7898,1.7887,1.7886,1.7886,0,0,0,0,0,0,0,0,0,0,0,0,0,1.7918,1.7925,1.7913,1.7909,1.7909,1.7903,1.7903,1.7903,1.7898,1.7898,1.7898,1.7898,1.7887,1.7886,1.7886,1.7883,0,0,1.7884,1.7884,0,0,0,0,0,0,0,0,1.7918,1.7917,1.791,1.7909,1.7909,1.7902,1.7903,1.7896,1.7898,1.7902,1.7898,1.7898,1.7892,1.7891,1.7889,1.7883,1.7882,1.7884,1.7884,1.7884,1.7884,0,0,0,0,0,0,0,1.7919,1.7918,1.7909,1.791,1.7909,1.7907,1.7906,1.7902,1.7897,1.7902,1.7901,1.79,1.7891,1.7889,1.7889,1.7882,1.7884,1.7884,1.7884,1.7883,1.7873,1.7873,0,0,0,0,0,0,1.792,1.7918,1.7909,1.7909,1.7914,1.7907,1.7906,1.7904,1.7897,1.7896,1.79,1.79,1.789,1.7889,1.7888,1.7885,1.7884,1.7883,1.7883,1.7873,1.7873,1.7873,0,0,0,0,0,0,1.792,1.7919,1.791,1.7913,1.7912,1.7907,1.7905,1.7904,1.7902,1.7896,1.7895,1.7899,1.789,1.7889,1.7885,1.7884,1.7883,1.7883,1.7873,1.7873,1.7873,1.7878,0,0,0,0,0,0,1.7921,1.792,1.7919,1.7913,1.7912,1.7907,1.7905,1.7904,1.7902,1.7901,1.7895,1.7894,1.789,1.7885,1.7884,1.7884,1.7882,1.7873,1.7873,1.7873,1.7878,1.7878,1.7878,0,0,0,0,0,1.7921,1.792,1.7919,1.7918,1.7911,1.7907,1.7906,1.7902,1.7901,1.79,1.7897,1.7894,1.7885,1.7885,1.7884,1.7883,1.7873,1.7873,1.7873,1.7878,1.7878,1.7878,0,0,0,0,0,0,1.7924,1.7919,1.7918,1.7915,1.7911,1.7906,1.7904,1.7903,1.7899,1.7898,1.7893,1.7892,1.7888,1.7885,1.7886,1.788,1.7879,1.7878,1.7882,1.7883,1.7883,1.7884,1.7882,0,0,0,0,0,1.7925,1.7922,1.7918,1.7915,1.7914,1.791,1.7908,1.7905,1.7901,1.79,1.7895,1.7891,1.7887,1.7885,1.7881,1.7877,1.7876,1.7876,1.7876,1.7877,1.7876,1.7875,1.7875,1.7873,1.7873,1.7873,0,0,1.7925,1.7922,1.7921,1.7916,1.7913,1.791,1.7908,1.7905,1.7903,1.7899,1.7895,1.7892,1.7887,1.7883,1.7881,1.788,1.7877,1.7877,1.7877,1.7877,1.7875,1.7875,1.7875,1.7873,1.7873,1.7873,0,0,1.7925,1.7922,1.792,1.7918,1.7914,1.7911,1.7911,1.7906,1.7904,1.79,1.7897,1.7894,1.7888,1.7884,1.7882,1.7881,1.7879,1.788,1.7881,1.788,1.788,1.788,1.788,1.788,1.788,1.788,1.788,0,1.7926,1.7922,1.7919,1.7917,1.7915,1.7912,1.791,1.7907,1.7902,1.79,1.79,1.7892,1.7888,1.7884,1.7884,1.7882,1.7881,1.7881,1.788,1.788,1.788,1.788,1.788,1.788,1.788,1.788,1.788,0,1.7924,1.7921,1.792,1.7916,1.7914,1.7912,1.7908,1.7906,1.7904,1.7901,1.7898,1.7894,1.7889,1.7888,1.7885,1.7883,1.7883,1.7881,1.788,1.7881,1.788,1.788,1.788,1.788,1.788,1.788,0,0,1.7925,1.792,1.7919,1.7918,1.7913,1.7911,1.7909,1.7905,1.7904,1.79,1.7898,1.7893,1.7892,1.7889,1.7886,1.7885,1.7885,1.7883,1.7883,1.7884,1.7882,1.7883,1.7883,1.7883,1.7883,1.7883,1.7883,0,1.7924,1.792,1.7917,1.7914,1.7912,1.7909,1.7907,1.7904,1.7902,1.7899,1.7896,1.7893,1.7892,1.789,1.7888,1.7885,1.7884,1.7885,1.788,1.788,1.7882,1.7883,1.7884,1.7884,1.7882,1.7882,1.7882,0,1.7922,1.792,1.7916,1.7913,1.7912,1.791,1.7907,1.7905,1.7901,1.7899,1.7897,1.7894,1.7891,1.7891,1.7886,1.7887,1.7885,1.7883,1.7883,1.7882,1.7881,1.7882,1.7884,1.7883,1.7882,1.7882,1.7882,0,1.7923,1.7919,1.7916,1.7915,1.7911,1.791,1.7908,1.7905,1.7903,1.79,1.7899,1.7895,1.7893,1.789,1.7887,1.7886,1.7883,1.7882,1.7881,1.7881,1.788,1.788,1.7881,1.7879,1.7879,1.7879,1.7879,0,1.7922,1.792,1.7917,1.7915,1.7913,1.7911,1.7909,1.7906,1.7904,1.7902,1.7899,1.7897,1.7893,1.789,1.7887,1.7884,1.7883,1.7882,1.7881,1.7882,1.7882,1.788,1.788,1.7879,1.7879,1.7879,1.7879,0,1.7922,1.792,1.7918,1.7914,1.7913,1.7912,1.7909,1.7907,1.7905,1.7903,1.7902,1.7898,1.7895,1.7892,1.7887,1.7885,1.7882,1.7881,1.7884,1.7883,1.7883,1.7883,1.7883,1.7882,1.7881,1.7881,1.7881,0,1.7922,1.7921,1.7917,1.7916,1.7915,1.7912,1.7911,1.7908,1.7907,1.7903,1.7902,1.7899,1.7896,1.7891,1.7888,1.7884,1.7883,1.7883,1.7883,1.7884,1.7883,1.7883,1.7883,1.7883,1.7883,1.7883,1.7884,0,1.7921,1.792,1.7918,1.7916,1.7914,1.7912,1.791,1.7909,1.7906,1.7904,1.7902,1.79,1.7896,1.7893,1.7889,1.7887,1.7884,1.7884,1.7884,1.7884,1.7886,1.7885,1.7884,1.7884,1.7884,1.7884,1.7884,1.7884,1.7921,1.792,1.7918,1.7916,1.7914,1.7912,1.7911,1.7909,1.7907,1.7903,1.7902,1.7899,1.7896,1.7891,1.7889,1.7887,1.7886,1.7886,1.7885,1.7885,1.7886,1.7887,1.7886,1.7886,1.7886,1.7886,1.7886,0,1.792,1.7919,1.7917,1.7915,1.7913,1.7912,1.791,1.7908,1.7906,1.7904,1.7902,1.7899,1.7896,1.7893,1.789,1.7888,1.7887,1.7888,1.7887,1.7887,1.7886,1.7887,1.7888,1.7888,1.7888,1.7888,1.7888,1.7888,1.792,1.7918,1.7917,1.7914,1.7912,1.791,1.7909,1.7907,1.7906,1.7903,1.7901,1.7899,1.7896,1.7893,1.789,1.7889,1.7888,1.7889,1.7888,1.7887,1.7887,1.7887,1.7887,1.7889,1.7889,1.7888,1.7888,1.7888]}]]